Weather History for KYKN - February, 2012

Change the Weather History Date:

Sunday, February 12, 2012

  Actual Average Record
Temperature  
Mean Temperature 18 °F -  
Max Temperature 33 °F 31 °F 65 °F (1977)
Min Temperature 3 °F 9 °F -25 °F (1981)
Degree Days  
Heating Degree Days 47    
Moisture  
Dew Point 3 °F    
Average Humidity 58    
Maximum Humidity 85    
Minimum Humidity 25    
Precipitation  
Precipitation 0.00 in - - ()
Sea Level Pressure  
Sea Level Pressure 30.30 in    
Wind  
Wind Speed 8 mph (South)    
Max Wind Speed 22 mph    
Max Gust Speed 29 mph    
Visibility 10 miles    
Events      
Averages and records for this station are not official NWS values.
T = Trace of Precipitation, MM = Missing Value Source: NWS Daily Summary

Daily Weather History Graph

Daily Weather History Graph

Search for Another Location

Airport or City:

Trip Planner

Search our weather history database for the weather conditions in past years. The results will help you decide how hot, cold, wet, or windy it might be!

Date:

Astronomy

Feb. 12, 2012 Rise Set
Actual Time 7:31 AM CST 5:56 PM CST
Civil Twilight 7:02 AM CST 6:25 PM CST
Nautical Twilight 6:29 AM CST 6:59 PM CST
Astronomical Twilight 5:56 AM CST 7:32 PM CST
Moon No Moon Rise 9:40 AM CST (2/12)
Length of Visible Light 11h 23m
Length of Day
10h 24m
Waning Gibbous, 72% of the Moon is Illuminated
Feb 12
Waning Gibbous
Feb 14
Last Quarter
Feb 21
New
Feb 29
First Quarter
Mar 8
Full

Hourly Weather History & Observations

Time (CST) Temp. Windchill Dew Point Humidity Pressure Visibility Wind Dir Wind Speed Gust Speed Precip Events Conditions
12:15 AM 8.6 °F -1.3 °F -0.4 °F 67% 30.52 in 10.0 mi SW 5.8 mph - N/A   Clear
12:35 AM 8.6 °F 2.0 °F -0.4 °F 67% 30.52 in 10.0 mi SW 3.5 mph - N/A   Clear
12:55 AM 8.6 °F - 1.4 °F 73% 30.52 in 10.0 mi Calm Calm - N/A   Clear
1:15 AM 8.6 °F - -0.4 °F 67% 30.52 in 10.0 mi Calm Calm - N/A   Clear
1:35 AM 8.6 °F - 1.4 °F 73% 30.51 in 10.0 mi Calm Calm - N/A   Clear
1:55 AM 6.8 °F -0.1 °F 1.4 °F 79% 30.51 in 10.0 mi SSE 3.5 mph - N/A   Clear
2:15 AM 5.0 °F - -0.4 °F 78% 30.52 in 10.0 mi Calm Calm - N/A   Clear
2:35 AM 3.2 °F -4.2 °F -0.4 °F 85% 30.51 in 10.0 mi SSE 3.5 mph - N/A   Clear
2:55 AM 6.8 °F -2.0 °F 1.4 °F 79% 30.51 in 10.0 mi SSE 4.6 mph - N/A   Clear
3:15 AM 5.0 °F -2.1 °F -0.4 °F 78% 30.50 in 10.0 mi SSE 3.5 mph - N/A   Clear
3:35 AM 3.2 °F -6.2 °F -2.2 °F 78% 30.49 in 10.0 mi SSE 4.6 mph - N/A   Clear
3:55 AM 6.8 °F - -0.4 °F 72% 30.48 in 10.0 mi Calm Calm - N/A   Clear
4:15 AM 6.8 °F -0.1 °F -0.4 °F 72% 30.48 in 10.0 mi South 3.5 mph - N/A   Clear
4:35 AM 5.0 °F -2.1 °F -0.4 °F 78% 30.47 in 10.0 mi South 3.5 mph - N/A   Clear
4:55 AM 5.0 °F -4.1 °F -0.4 °F 78% 30.46 in 10.0 mi South 4.6 mph - N/A   Clear
5:15 AM 5.0 °F -4.1 °F -0.4 °F 78% 30.46 in 10.0 mi South 4.6 mph - N/A   Clear
5:35 AM 3.2 °F -7.8 °F -0.4 °F 85% 30.45 in 10.0 mi SSE 5.8 mph - N/A   Clear
5:55 AM 3.2 °F -6.2 °F -2.2 °F 78% 30.44 in 10.0 mi South 4.6 mph - N/A   Clear
6:15 AM 3.2 °F -7.8 °F -0.4 °F 85% 30.43 in 10.0 mi South 5.8 mph - N/A   Clear
6:35 AM 5.0 °F -6.9 °F -0.4 °F 78% 30.42 in 10.0 mi South 6.9 mph - N/A   Clear
6:55 AM 5.0 °F -5.6 °F -2.2 °F 72% 30.41 in 10.0 mi South 5.8 mph - N/A   Clear
7:15 AM 5.0 °F -6.9 °F -2.2 °F 72% 30.40 in 10.0 mi South 6.9 mph - N/A   Clear
7:35 AM 3.2 °F -7.8 °F -2.2 °F 78% 30.39 in 10.0 mi South 5.8 mph - N/A   Clear
7:55 AM 5.0 °F -4.1 °F -0.4 °F 78% 30.39 in 10.0 mi South 4.6 mph - N/A   Clear
8:15 AM 6.8 °F -0.1 °F -2.2 °F 67% 30.39 in 10.0 mi SSE 3.5 mph - N/A   Clear
8:35 AM 6.8 °F -0.1 °F -0.4 °F 72% 30.38 in 10.0 mi SSE 3.5 mph - N/A   Clear
8:55 AM 10.4 °F -0.4 °F 3.2 °F 73% 30.38 in 10.0 mi South 6.9 mph - N/A   Clear
9:15 AM 12.2 °F 1.7 °F 3.2 °F 67% 30.38 in 10.0 mi South 6.9 mph - N/A   Clear
9:35 AM 14.0 °F 2.0 °F 5.0 °F 67% 30.37 in 10.0 mi South 9.2 mph - N/A   Clear
9:55 AM 17.6 °F 4.3 °F 6.8 °F 63% 30.36 in 10.0 mi SSW 12.7 mph - N/A   Clear
10:15 AM 19.4 °F 5.5 °F 6.8 °F 58% 30.35 in 10.0 mi SSW 15.0 mph 18.4 mph N/A   Clear
10:35 AM 21.2 °F 6.8 °F 6.8 °F 54% 30.35 in 10.0 mi SSW 17.3 mph 21.9 mph N/A   Clear
10:55 AM 23.0 °F 11.7 °F 5.0 °F 46% 30.33 in 10.0 mi SSW 11.5 mph - N/A   Clear
11:15 AM 24.8 °F 12.4 °F 6.8 °F 46% 30.32 in 10.0 mi South 15.0 mph 25.3 mph N/A   Clear
11:35 AM 26.6 °F 13.8 °F 6.8 °F 43% 30.30 in 10.0 mi South 17.3 mph 28.8 mph N/A   Clear
11:55 AM 26.6 °F 12.7 °F 5.0 °F 40% 30.28 in 10.0 mi South 20.7 mph 27.6 mph N/A   Clear
12:15 PM 28.4 °F 14.7 °F 6.8 °F 40% 30.27 in 10.0 mi South 21.9 mph 27.6 mph N/A   Clear
12:35 PM 28.4 °F 15.1 °F 3.2 °F 34% 30.25 in 10.0 mi South 20.7 mph 28.8 mph N/A   Clear
12:55 PM 30.2 °F 18.5 °F 3.2 °F 32% 30.24 in 10.0 mi South 17.3 mph 26.5 mph N/A   Clear
1:15 PM 30.2 °F 18.9 °F 3.2 °F 32% 30.23 in 10.0 mi South 16.1 mph 25.3 mph N/A   Clear
1:35 PM 30.2 °F 17.8 °F 1.4 °F 29% 30.21 in 10.0 mi South 19.6 mph 24.2 mph N/A   Clear
1:55 PM 30.2 °F 18.5 °F 1.4 °F 29% 30.19 in 10.0 mi South 17.3 mph 23.0 mph N/A   Clear
2:15 PM 32.0 °F 21.6 °F 1.4 °F 27% 30.18 in 10.0 mi South 15.0 mph 19.6 mph N/A   Partly Cloudy
2:35 PM 33.8 °F 23.5 °F 1.4 °F 25% 30.16 in 10.0 mi South 16.1 mph 23.0 mph N/A   Scattered Clouds
2:55 PM 32.0 °F 20.5 °F -0.4 °F 25% 30.15 in 10.0 mi South 18.4 mph 25.3 mph N/A   Scattered Clouds
3:15 PM 32.0 °F 20.8 °F 1.4 °F 27% 30.14 in 10.0 mi South 17.3 mph 25.3 mph N/A   Mostly Cloudy
3:35 PM 30.2 °F 18.9 °F 1.4 °F 29% 30.14 in 10.0 mi SSE 16.1 mph 24.2 mph N/A   Mostly Cloudy
3:55 PM 30.2 °F 17.8 °F 3.2 °F 32% 30.14 in 10.0 mi South 19.6 mph 26.5 mph N/A   Scattered Clouds
4:15 PM 30.2 °F 17.4 °F 3.2 °F 32% 30.13 in 10.0 mi SSE 20.7 mph 25.3 mph N/A   Clear
4:35 PM 28.4 °F 15.4 °F 5.0 °F 37% 30.11 in 10.0 mi SSE 19.6 mph - N/A   Clear
4:55 PM 28.4 °F 15.4 °F 6.8 °F 40% 30.10 in 10.0 mi SSE 19.6 mph - N/A   Clear
5:15 PM 26.6 °F 12.7 °F 6.8 °F 43% 30.10 in 10.0 mi South 20.7 mph - N/A   Clear
5:35 PM 26.6 °F 13.8 °F 6.8 °F 43% 30.09 in 10.0 mi SSE 17.3 mph - N/A   Partly Cloudy
5:55 PM 24.8 °F 12.9 °F 6.8 °F 46% 30.09 in 10.0 mi SSE 13.8 mph 21.9 mph N/A   Partly Cloudy
6:15 PM 24.8 °F 13.4 °F 8.6 °F 50% 30.08 in 10.0 mi SSE 12.7 mph 17.3 mph N/A   Mostly Cloudy
6:35 PM 23.0 °F 11.1 °F 8.6 °F 54% 30.08 in 10.0 mi SSE 12.7 mph - N/A   Overcast
6:55 PM 24.8 °F 14.0 °F 10.4 °F 54% 30.08 in 10.0 mi SSE 11.5 mph 20.7 mph N/A   Overcast
7:15 PM 23.0 °F 11.1 °F 8.6 °F 54% 30.08 in 10.0 mi SSE 12.7 mph 17.3 mph N/A   Mostly Cloudy
7:35 PM 21.2 °F 8.9 °F 8.6 °F 58% 30.07 in 10.0 mi SSE 12.7 mph 18.4 mph N/A   Scattered Clouds
7:55 PM 21.2 °F 10.1 °F 8.6 °F 58% 30.06 in 10.0 mi SE 10.4 mph - N/A   Partly Cloudy
8:15 PM 21.2 °F 10.9 °F 8.6 °F 58% 30.06 in 10.0 mi SE 9.2 mph - N/A   Scattered Clouds
8:35 PM 21.2 °F 10.9 °F 10.4 °F 63% 30.05 in 10.0 mi SSE 9.2 mph - N/A   Mostly Cloudy
8:55 PM 21.2 °F 10.9 °F 10.4 °F 63% 30.04 in 10.0 mi SSE 9.2 mph - N/A   Scattered Clouds
9:15 PM 21.2 °F 10.1 °F 10.4 °F 63% 30.03 in 10.0 mi SSE 10.4 mph - N/A   Mostly Cloudy
9:35 PM 21.2 °F 8.9 °F 10.4 °F 63% 30.02 in 10.0 mi SSE 12.7 mph - N/A   Mostly Cloudy
9:55 PM 23.0 °F 11.1 °F 10.4 °F 59% 30.02 in 10.0 mi SSE 12.7 mph - N/A   Overcast
10:15 PM 23.0 °F 10.1 °F 10.4 °F 59% 30.01 in 10.0 mi SSE 15.0 mph - N/A   Overcast
10:35 PM 24.8 °F 12.4 °F 10.4 °F 54% 30.00 in 10.0 mi SSE 15.0 mph 18.4 mph N/A   Overcast
10:55 PM 24.8 °F 13.4 °F 10.4 °F 54% 29.98 in 10.0 mi SSE 12.7 mph - N/A   Overcast
11:15 PM 24.8 °F 11.9 °F 10.4 °F 54% 29.98 in 10.0 mi SSE 16.1 mph - N/A   Overcast
11:55 PM 24.8 °F 13.4 °F 12.2 °F 59% 29.95 in 10.0 mi SSE 12.7 mph - N/A   Overcast